Location: Fredericksburg
(30.2750°N, 98.8720°W)
Time: 08:42:59
(UTC-05:00)

Daily predictions for brighter satellites

Satellite Brightness Start Highest point End
(mag) Time Altitude Azimuth Time Altitude Azimuth Time Altitude Azimuth
ATLAS CENTAUR R/B 1.8 20:48:14 10° SSW 20:53:02 79° ESE 20:58:05 10° NNE
Cosmos 1980 3.8 20:48:00 10° SSW 20:53:40 85° WNW 20:59:22 10° NNE
Cosmos 158 Rocket 4.1 20:49:14 10° S 20:54:01 49° ESE 20:58:57 10° NNE
Cosmos 1844 4.1 20:48:39 10° N 20:54:14 50° ENE 20:59:49 10° SE
Resurs 1-3 4.0 20:50:34 10° S 20:54:55 69° WSW 20:59:18 10° NNW
Cosmos 1844 Rocket 2.7 20:49:45 10° NNW 20:55:25 71° ENE 21:01:00 10° SSE
METEOR-M 4.3 20:54:14 10° SSE 20:59:35 85° W 21:04:58 10° NNW
Cosmos 2251 Rocket 3.8 20:55:30 10° S 21:00:31 47° ESE 21:05:36 10° NNE
Hubble Space Telescope 1.7 20:57:30 10° W 21:01:21 37° SSW 21:05:12 10° SE
Cosmos 1025 Rocket 3.5 20:58:25 10° SSE 21:02:33 42° E 21:06:41 10° NNE
FENGYUN 3A 4.1 20:57:52 10° SE 21:02:56 45° ENE 21:08:02 10° N
RESURS DK-1 2.7 21:00:54 10° NNW 21:05:01 67° WSW 21:09:06 10° SSE
Intelsat 5-2 Rocket 4.0 21:03:46 10° SW 21:05:24 15° SSW 21:06:57 10° SSE
Cosmos 2123 Rocket 4.5 20:59:26 10° SSW 21:05:33 66° W 21:11:41 10° N
Cosmos 1812 4.1 21:04:57 10° SSW 21:08:37 42° W 21:12:18 10° N
Atlas Centaur 2 3.4 21:03:15 10° SW 21:10:01 41° SSE 21:17:44 10° E
ALOS 2.4 21:07:54 10° SSE 21:12:28 58° ENE 21:17:03 10° N
OTV 4 0.9 21:10:09 10° WNW 21:13:04 52° NNE 21:15:32 13° E
COSMOS 2455 4.4 21:13:20 11° ESE 21:14:43 12° ESE 21:17:00 10° E
Cosmos 1315 Rocket 3.8 21:11:21 10° NNW 21:15:19 49° W 21:19:13 10° S
Cosmos 2237 Rocket 3.0 21:11:03 10° SSW 21:16:32 57° WNW 21:22:05 10° N
ERS-1 Rocket 3.6 21:16:51 12° SE 21:21:09 38° ENE 21:25:47 10° N
Cosmos 1420 Rocket 4.3 21:18:54 10° NNW 21:24:10 71° WSW 21:29:22 10° S
CZ-2D R/B 3.5 21:22:22 10° S 21:26:14 72° W 21:30:07 10° NNW
SL-24 R/B - RUBIN 2 4.4 21:23:16 10° SW 21:28:21 72° WNW 21:34:11 10° NNE
Cosmos 2278 Rocket 2.2 21:24:14 10° NNW 21:29:54 68° ENE 21:34:38 15° SSE
GEOS 3 Rocket 3.6 21:27:10 13° SE 21:31:54 88° ENE 21:37:09 10° NNW
YAOGAN 11 4.0 21:28:34 10° SSE 21:32:52 77° ENE 21:37:13 10° N
Cosmos 1726 Rocket 3.9 21:30:01 10° N 21:34:16 45° E 21:37:06 19° SSE
Cosmos 2233 Rocket 4.0 21:28:05 10° N 21:34:20 88° E 21:40:31 10° S
Lacrosse 5 rocket 3.4 21:33:11 10° WSW 21:36:31 29° NW 21:40:00 10° NNE
Cosmos 1464 Rocket 4.4 21:35:40 10° N 21:41:26 42° E 21:45:12 21° SE
Cosmos 2058 Rocket 3.5 21:38:36 10° N 21:42:44 41° E 21:44:45 25° SE
SL-16 R/B 2.3 21:37:10 10° SSW 21:42:48 82° WNW 21:48:29 10° NNE
Aureole 2 Rocket 2.9 21:41:33 10° S 21:45:35 49° ESE 21:49:20 10° NNE
Cosmos 1602 Rocket 4.5 21:45:02 25° ESE 21:46:23 30° E 21:50:17 10° NNE
Okean 2 3.3 21:42:51 12° S 21:46:37 66° E 21:50:46 10° NNE
Cosmos 1666 3.8 21:45:31 10° NNE 21:48:49 26° E 21:49:18 25° E
Cosmos 1500 4.1 21:46:14 10° NNW 21:49:59 49° W 21:53:44 10° SSW
deb Chang Zheng 4 3.8 21:46:14 10° N 21:50:36 71° WNW 21:54:56 10° SSW
Meteor 1-23 Rocket 4.1 21:46:22 10° S 21:51:57 85° E 21:57:39 10° N
Cosmos 494 Rocket 4.1 21:51:16 10° SSW 21:56:22 75° WNW 22:01:28 10° NNE
Cosmos 1743 2.8 21:54:14 10° N 21:58:04 75° W 22:00:13 24° S
Cosmos 2034 Rocket 4.4 21:52:41 10° N 21:58:43 44° E 22:01:31 28° SE
UNK 4.4 21:55:34 10° NNE 22:00:54 53° ESE 22:04:38 21° S
SJ-11-01 4.3 22:00:26 23° S 22:03:21 81° WSW 22:08:01 10° NNW
PSLV R/B 3.6 22:01:55 10° WSW 22:05:26 67° NNW 22:07:53 19° NE
CZ-2C R/B 2.4 22:06:03 24° WSW 22:06:21 25° W 22:08:21 10° NW
Cosmos 1606 Rocket 4.3 22:05:22 10° NNW 22:09:40 50° W 22:12:45 18° SSW
H-2A R/B 2.2 22:08:27 28° S 22:10:31 67° WSW 22:14:47 10° NNW
Cosmos 1603 3.6 22:06:39 14° S 22:11:30 62° ESE 22:17:01 10° NNE
DEBRIS 4.3 22:11:44 10° NNW 22:14:28 17° NNE 22:15:01 17° NE
Meteor 2-4 Rocket 4.5 22:11:11 10° SSW 22:16:49 55° W 22:22:37 10° N
SPOT 5 2.6 22:17:32 51° SE 22:18:27 64° ENE 22:22:47 10° N
CZ-4 R/B 4.4 22:13:56 10° NNE 22:18:29 39° E 22:18:29 39° E
Milstar 3 Cent rocket 2.4 22:11:52 10° W 22:18:36 51° SSW 22:19:51 41° SSE
Delta 168 3.6 22:15:46 10° WSW 22:19:15 41° S 22:19:15 41° S
Geosat 4.2 22:15:04 10° NE 22:19:52 44° ESE 22:19:56 44° ESE
Cosmos 1626 Rocket 3.4 22:18:55 45° S 22:20:16 81° E 22:24:42 10° N
CZ-4 SHROUD 3.6 22:22:15 60° N 22:22:15 60° N 22:24:55 10° N
Cosmos 1331 Rocket 3.9 22:17:14 10° NNW 22:22:26 81° WSW 22:24:16 41° S
Meteor 2-9 Rocket 4.2 22:17:04 10° N 22:22:47 87° E 22:25:16 36° S
Cosmos 1302 Rocket 4.0 22:25:45 10° N 22:30:58 68° ENE 22:31:50 57° ESE
Cosmos 2297 3.9 22:25:47 10° NNW 22:31:28 68° WSW 22:33:35 39° S
SeaSat 1 2.3 22:32:58 59° SSE 22:33:56 89° ENE 22:38:53 10° NNW
APEX 3.8 22:33:10 10° NNW 22:37:30 67° ENE 22:37:52 64° E
Cosmos 1943 4.0 22:39:29 34° ENE 22:39:29 34° ENE 22:43:24 10° NE
Cosmos 1891 Rocket 4.5 22:35:01 10° N 22:41:08 76° W 22:43:25 40° S
Hubble Space Telescope 3.4 22:40:19 10° SW 22:40:39 11° SW 22:40:39 11° SW
CZ-4B R/B 3.6 22:37:10 10° N 22:42:15 75° WNW 22:44:18 37° SSW
Cosmos 2228 3.7 22:39:49 10° NNW 22:44:05 50° W 22:44:52 44° SW
YAOGAN 6 3.7 22:47:30 40° N 22:47:30 40° N 22:50:01 10° N
OTV 4 3.6 22:46:59 10° W 22:47:03 10° W 22:47:03 10° W
Terra 3.6 22:51:59 19° NE 22:51:59 19° NE 22:54:23 10° NNE
Envisat 4.0 22:57:01 32° SW 22:58:23 39° W 23:03:07 10° NNW
MetOp-A 4.3 22:58:43 57° SW 22:59:28 63° WSW 23:04:47 10° NNW
Atlas Centaur 2 2.9 22:51:34 10° WSW 22:59:36 78° SSE 23:03:19 38° E
COSMOS 2455 3.0 22:56:15 25° SW 22:59:55 72° WNW 23:05:55 10° NNE
SL-08 RB Rocket 4.5 23:01:19 44° NNE 23:01:19 44° NNE 23:04:43 10° N
ATLAS 3B R/B 2.8 23:05:14 60° SSE 23:06:15 65° ESE 23:13:48 10° NE
USA 81 4.3 23:04:17 10° N 23:08:46 60° NNE 23:08:46 60° NNE
USA 234 3.1 23:15:11 73° SE 23:15:54 87° NE 23:22:29 10° NW
Cosmos 2369 Rocket 3.2 23:23:48 10° N 23:28:01 37° NE 23:28:01 37° NE
ARGOS 3.6 23:29:43 57° WNW 23:29:43 57° WNW 23:34:35 10° NNW
H-2A R/B 3.0 23:31:07 40° NNE 23:31:07 40° NNE 23:34:24 10° N
Cosmos 2142 Rocket 4.5 23:27:56 10° N 23:33:50 78° NW 23:33:50 78° NW
Cosmos 1634 Rocket 4.3 23:41:16 10° NNW 23:46:54 59° WNW 23:46:54 59° WNW
